[Date Prev][Date Next][Thread Prev][Thread Next] - [Date Index][Thread Index][Author Index]

2 Line ISS Keps 1-10



ISS
1 25544U 98067A   03010.17432725  .00027546  00000-0  35491-3 0  5642
2 25544  51.6356  93.9833 0005136  17.8188  66.3490 15.58797898236355


----
Via the sarex mailing list at AMSAT.ORG courtesy of AMSAT-NA.
To unsubscribe, send "unsubscribe sarex" to Majordomo@amsat.org



AMSAT Top AMSAT Home